Regional Weather Roundup
Issued by NWS

Home | Current Version | Previous Version | Graphics & Text | Print | Product List | Glossary On
Versions: 1 2 3 4 5 6 7 8 9 10 11 12 13 14 15 16 17 18 19 20 21 22 23 24 25 26 27 28 29 30 31 32 33 34 35 36 37 38 39 40 41 42 43 44 45 46 47 48 49 50
000
ASUS45 KTFX 301819
RWRMT
MONTANA HOURLY WEATHER ROUNDUP
NATIONAL WEATHER SERVICE GREAT FALLS MT
1119 AM MST FRI JAN 30 2015

NOTE: "FAIR" INDICATES FEW OR NO CLOUDS BELOW 12000 FEET WITH NO
SIGNIFICANT WEATHER AND/OR OBSTRUCTIONS TO VISIBILITY.

* THESE STATIONS ARE NOT UNDER NWS QUALITY CONTROL. THEY DO NOT
   REPORT WEATHER SUCH AS PRECIPITATION OR FOG.

MTZ001>007-043-301900-
WEST OF THE DIVIDE
CITY           SKY/WX    TMP DP  RH WIND       PRES   REMARKS
KALISPELL      FOG       21  19  92 CALM      30.37S VSB 1/2
MISSOULA       FOG       25  21  85 CALM      30.37S
BUTTE          SUNNY     27  19  72 CALM      30.26F
MULLAN PASS    SUNNY     34  10  37 CALM      30.24S
* ANACONDA     SUNNY     36  18  48 N/A        N/A
* ESSEX        N/A       22  17  81 N/A        N/A
* EUREKA APT   PTCLDY    27  25  92 CALM      30.40S
* HAMILTON APT SUNNY     30  23  75 E2        30.32F
* LIBBY APT    SUNNY     27  27 100 CALM      30.40F
* LINCOLN      N/A       16  12  84 NE2        N/A
* LOOKOUT PASS N/A       28  23  81 SE4        N/A
* POLSON       N/A       26  25  96 SW1        N/A
* RONAN APT    SUNNY     25  23  92 N/A        N/A
* SEELEY LAKE  N/A       20  15  81 N/A        N/A
* THOMP F APT  SUNNY     33  13  44 NE3G10     N/A
$$

MTZ008-052>055-301900-
SOUTHWEST MONTANA
CITY           SKY/WX    TMP DP  RH WIND       PRES   REMARKS
BOZEMAN        PTCLDY    32  23  69 CALM      30.28S
DILLON         SUNNY     28  18  66 SW6       30.26S WCI  21
* W YELLOWSTON PTCLDY    15  12  88 NW1        N/A
* THREE FORKS  PTCLDY    34  34 100 N/A        N/A
* BOULDER HILL N/A       30  15  54 S9         N/A   WCI  22
* MONIDA PASS  N/A       14  13  96 W3         N/A
* RAYNOLDS PAS N/A       23  22  96 NW2        N/A
* WHITEHALL    N/A       31  23  72 NW4        N/A
* WISE RIVER   N/A       18  12  77 NW4        N/A
$$

MTZ009>010-012-014-046-048-049-054-301900-
EAST SLOPES AND CENTRAL MONTANA
CITY           SKY/WX    TMP DP  RH WIND       PRES   REMARKS
CUT BANK       PTCLDY    39  23  53 CALM      30.20S
GREAT FALLS    SUNNY     43  18  37 SW10      30.21F
HELENA         SUNNY     32  25  75 CALM      30.28S
MALMSTROM AFB  SUNNY     39  23  53 N3        30.23S
* CONRAD       SUNNY     30  25  82 CALM       N/A
* DEARBORN     N/A       37  23  57 S6         N/A   WCI  32
* EAST GLACIER N/A       35  15  44 W22G30     N/A   WCI  23
* MONARCH      N/A       34  11  38 S4         N/A
* PENDROY      N/A       49   6  17 SE2        N/A
* ROGERS PASS  N/A       28  17  63 SE6G15     N/A   WCI  21
* SWEET GRASS  N/A       40  16  38 W4         N/A
* WHITE SULPH  N/A       33  24  70 W3G8       N/A
$$

MTZ011-013-016-021-035-040-045-047-050-051-301900-
NORTH CENTRAL MONTANA
CITY           SKY/WX    TMP DP  RH WIND       PRES   REMARKS
HAVRE          PTCLDY    37  27  67 W6        30.24R WCI  32
LEWISTOWN      SUNNY     41  12  30 CALM      30.22S
* N BAR RANCH  SUNNY     48   7  19 E7        30.21S
* CHINOOK      PTCLDY    30  27  89 CALM      30.26R
* MALTA APT    SUNNY     30  27  89 N/A        N/A
* CHESTER      N/A       30  23  75 N/A        N/A
* DENTON       N/A       41  21  45 N/A        N/A
* GEYSER       N/A       44  18  35 W4         N/A
* JUDITH GAP   N/A       43  17  35 VRB4       N/A
* LOMA         N/A       33  24  70 SW2        N/A
$$

MTZ017>020-022>027-061-062-301900-
NORTHEAST MONTANA
CITY           SKY/WX    TMP DP  RH WIND       PRES   REMARKS
GLASGOW        SUNNY     28  27  96 W9        30.24S WCI  19
GLENDIVE       SUNNY     39  28  65 CALM      30.23S
JORDAN         SUNNY     39  28  65 NW6       30.23S WCI  35
SIDNEY         SUNNY     39  28  65 NW6       30.24S WCI  35
WOLF POINT     SUNNY     32  27  82 SW9       30.25R WCI  24
* BEAVER HILL  N/A       37  26  64 W7         N/A   WCI  32
* CIRCLE       N/A       35  30  82 W3G9       N/A
* LINDSAY DVD  N/A       36  27  70 NW16       N/A   WCI  26
* NAVAJO       N/A       33  27  79 NW12       N/A   WCI  24
* PLENTYWOOD A SUNNY     30  27  89 W8        30.21R WCI  22
* POPLAR APT   SUNNY     32  28  85 N/A       30.24S
* SACO         N/A       28  27  96 W4         N/A
* SCOBEY APT   PTCLDY    32  25  75 N/A        N/A
$$

MTZ028>042-056>058-301900-
SOUTHCENTRAL AND SOUTHEAST MONTANA
CITY           SKY/WX    TMP DP  RH WIND       PRES   REMARKS
BAKER          SUNNY     39  27  62 W12       30.20S WCI  32
BILLINGS       PTCLDY    37  25  62 SW13      30.22S WCI  29
LIVINGSTON     PTCLDY    41  16  36 W13       30.23S
MILES CITY     SUNNY     37  28  70 W6        30.23S WCI  32
* BIG TIMBER A PTCLDY    37  18  46 SW12      30.23S WCI  29
* FORSYTH APT  SUNNY     37  28  70 W7        30.24S WCI  32
* LAUREL APT   PTCLDY    39  21  48 S6         N/A   WCI  35
* ROUNDUP APT  SUNNY     39  21  48 N/A        N/A
* ALZADA       N/A       42  28  58 W7         N/A
* HYSHAM       N/A       37  25  62 W6         N/A   WCI  32
* LAME DEER    N/A       41  15  35 NW7G12     N/A
* REED POINT   N/A       37  24  59 W4         N/A
* ROSCOE HILL  N/A       41   7  24 SW2        N/A
$$

REGIONAL REPORTS...DAKOTAS
CITY           SKY/WX    TMP DP  RH WIND       PRES   REMARKS
WILLISTON      PTCLDY    37  28  70 NW10      30.21R WCI  30
DICKINSON      PTCLDY    41  28  60 W14       30.15S
BEACH          SUNNY     39  28  65 NW8       30.20S WCI  33
CROSBY         FOG       28  28 100 NW14      30.20S WCI  17
TIOGA          PTSUNNY   32  32 100 NW14      30.20R WCI  22
WATFORD CITY   SUNNY     36  28  73 NW8       30.18R WCI  30
BISMARCK       SUNNY     34  25  70 SW7       30.18F WCI  28
GRAND FORKS    CLOUDY    21  14  74 S25G31    30.20F WCI   4
FARGO          CLOUDY    23  14  68 S20G28    30.26F WCI   8
BUFFALO SD     SUNNY     45  27  49 NW13      30.11F
RAPID CITY     CLOUDY    45  25  45 N14       30.17F
$$

REGIONAL REPORTS...WYOMING/IDAHO/WASHINGTON
CITY           SKY/WX    TMP DP  RH WIND       PRES   REMARKS
GILLETTE       CLOUDY    43  27  53 NE3       30.20S
SHERIDAN       PTSUNNY   37  19  48 CALM      30.22S
CODY           PTCLDY    39  23  53 N3        30.21F
YELLOWSTONE LA PTCLDY     1   0  95 CALM      30.26R
SALMON         CLOUDY    27  23  85 CALM      30.36S
MULLAN PASS    SUNNY     34  10  37 CALM      30.24S
SAND POINT     CLOUDY    32  32 100 NE6       30.39S WCI  26
SPOKANE        FOG       30  28  92 E3        30.37S VSB M1/4
$$

REGIONAL REPORTS...ALBERTA
CITY           SKY/WX    TMP DP  RH WIND       PRES   REMARKS
CALGARY        SUNNY     34  18  52 N5        30.20F WCI  29
LETHBRIDGE     PTSUNNY   30  21  69 NW2       30.20S
MEDICINE HAT   FOG       21  21 100 VRB2      30.26R VSB M1/4
EDMONTON       FOG       23  21  92 N9        30.26S WCI  13
WATERTON GATE  N/A       41  16  36 SW23G33    N/A
CARDSTON       N/A       41  23  49 SE2        N/A
MILK RIVER     N/A       37  25  62 NW8        N/A   WCI  31
$$

REGIONAL REPORTS...SASKATCHEWAN
CITY           SKY/WX    TMP DP  RH WIND       PRES   REMARKS
SWIFT CURRENT  FOG       25  25 100 W7        30.21S VSB M1/4 WCI  17
MOOSE JAW      PTSUNNY   25  23  92 NW12      30.23S WCI  14
REGINA         PTSUNNY   21  18  88 NW13      30.21R WCI   8
VAL MARIE      N/A       27  27 100 E1         N/A
ASSINIBOIA     N/A       27  27 100 W8         N/A   WCI  19
CORONACH       N/A       34  28  79 NW10       N/A   WCI  26

$$




USA.gov is the U.S. government's official web portal to all federal, state and local government web resources and services.